EW7558 Weather Reports


time (UTC)temp
C
wind
direction
speed
KPH
gust
KPH
rain 1hr
cm
rain 24hr
cm
rain mn
cm
humidity
%
barometer
mb
20260504044537 7 285 0.0 3.2 0.00 0.00 0.00 63 1017.7
20260504043045 7 279 0.0 1.6 0.00 0.00 0.00 62 1017.7
20260504041536 7 287 0.0 3.2 0.00 0.00 0.00 61 1017.7
20260504040031 8 270 0.0 3.2 0.00 0.00 0.00 60 1017.5
20260504034530 8 293 0.0 3.2 0.00 0.00 0.00 59 1017.5
20260504033031 8 275 0.0 3.2 0.00 0.00 0.00 58 1017.5
20260504031528 8 280 0.0 1.6 0.00 0.00 0.00 55 1017.4
20260504030030 9 279 0.0 1.6 0.00 0.00 0.00 53 1017.2
20260504024528 9 262 0.0 1.6 0.00 0.00 0.00 53 1017.2
20260504023028 9 262 0.0 1.6 0.00 0.00 0.00 52 1017.1
20260504021526 10 255 0.0 1.6 0.00 0.00 0.00 49 1017.2
20260504020026 10 258 0.0 1.6 0.00 0.00 0.00 49 1017.2
20260504014533 10 261 0.0 3.2 0.00 0.00 0.00 47 1017.1
20260504013025 10 272 0.0 1.6 0.00 0.00 0.00 47 1017.0
20260504011525 10 255 0.0 1.6 0.00 0.00 0.00 49 1016.8
20260504010023 9 256 0.0 1.6 0.00 0.00 0.00 50 1016.7
20260504004523 10 268 0.0 1.6 0.00 0.00 0.00 50 1016.8
20260504003030 10 268 0.0 1.6 0.00 0.00 0.00 49 1016.6
20260504001521 11 271 0.0 1.6 0.00 0.00 0.00 47 1016.4
20260504000021 11 259 0.0 1.6 0.00 0.00 0.00 45 1016.3
20260503234520 13 269 0.0 3.2 0.00 0.00 0.00 41 1016.1
20260503233019 13 250 1.6 6.4 0.00 0.00 0.00 39 1015.9
20260503231523 14 256 1.6 8.0 0.00 0.00 0.00 38 1016.0
20260503230017 14 240 1.6 11.3 0.00 0.00 0.00 36 1015.9
20260503224517 15 327 4.8 17.7 0.00 0.00 0.00 37 1016.0
20260503223018 15 267 3.2 9.7 0.00 0.00 0.00 37 1015.9
20260503221516 15 266 6.4 14.5 0.00 0.00 0.00 35 1016.0
20260503220015 15 227 3.2 12.9 0.00 0.00 0.00 36 1015.9
20260503214521 15 227 8.0 17.7 0.00 0.00 0.00 36 1016.1
20260503213014 15 241 6.4 16.1 0.00 0.00 0.00 34 1016.0
20260503211514 16 240 8.0 16.1 0.00 0.00 0.00 35 1015.8
20260503210013 15 275 6.4 14.5 0.00 0.00 0.00 34 1016.0
20260503204518 15 268 9.7 22.5 0.00 0.00 0.00 34 1016.0
20260503203010 15 269 4.8 17.7 0.00 0.00 0.00 37 1016.0
20260503201511 15 269 6.4 14.5 0.00 0.00 0.00 34 1016.0
20260503200008 15 271 6.4 16.1 0.00 0.00 0.00 37 1016.3
20260503194507 15 269 8.0 14.5 0.00 0.00 0.00 35 1016.4
20260503193006 15 257 4.8 19.3 0.00 0.00 0.00 32 1016.6
20260503191516 15 298 4.8 16.1 0.00 0.00 0.00 35 1016.8
20260503190004 14 255 6.4 19.3 0.00 0.00 0.00 37 1017.0
20260503184502 14 221 8.0 17.7 0.00 0.00 0.00 36 1017.2
20260503183001 14 263 6.4 17.7 0.00 0.00 0.00 36 1017.3
20260503181602 14 264 4.8 16.1 0.00 0.00 0.00 39 1017.3
20260503180111 13 255 8.0 17.7 0.00 0.00 0.00 41 1017.5
20260503174555 13 272 11.3 20.9 0.00 0.00 0.00 36 1017.6
20260503173103 13 274 6.4 19.3 0.00 0.00 0.00 43 1017.6
20260503171551 12 205 3.2 12.9 0.00 0.00 0.00 38 1017.7
20260503110105 3 275 1.6 8.0 0.00 0.00 0.00 65 1018.1
20260503081533 6 266 3.2 9.7 0.00 0.00 0.00 61 1016.2
20260503071531 5 167 3.2 9.7 0.00 0.00 0.00 64 1015.8